Weerstation Grootegast  Weerstation Grootegast


15 daagse weersverwachting Esposende (PT)

  • Overzicht
  • Per uur
  • 15 dagen
  • Extra
  • Vergelijk
  • Kaarten
  • Dagkaart
  • Meer »
  • Info
  • Statistieken
  • Directe link
    Temp 6h Neerslag Wind  
 07:47     17:05    Daglengte: 9:18 Vandaag
18:00
12.8 mm
8
 07:48     17:05    Daglengte: 9:17 Morgen
00:00
9.3 mm
7
06:00
17.8 mm
7
12:00
11°
7.5 mm
9
18:00
10°
25.5 mm
9
 07:49     17:05    Daglengte: 9:16 Zondag 06 Dec
00:00
11°
22.5 mm
7
06:00
11°
26.4 mm
8
12:00
11°
27.9 mm
4
18:00
13°
35.1 mm
3
 07:50     17:05    Daglengte: 9:15 Maandag 07 Dec
00:00
13°
30.9 mm
5
06:00
14°
48.9 mm
9
Locatie info
Region: Braga
Latitude: 41.5395°N
Longitude: -8.7816°E
7 masl
Postcode: 4740
Temp/Neerslag /Baro Onweer/Dauwpunt
    Temp Baro 1h Neerslag Dauwpunt Wind UV Bewolking  
 07:47     17:05    Daglengte: 9:18 Vandaag
14:00
Voelt als: 4.6°
1000.5 hPa 5.8 mm
50%
6.1°
9
Windvlaag: -3.2 m/s
73%
15:00
Voelt als: 4.3°
1000.4 hPa 1.8 mm
68%
6.5°
9
Windvlaag: -3 m/s
70% warningclass
16:00
Voelt als: 4.6°
1000.6 hPa 1.7 mm
68%
5.9°
9
Windvlaag: -3.2 m/s
64%
17:00
Voelt als: 4.4°
1000.7 hPa 1.9 mm
68%
6.0°
9
Windvlaag: -2.6 m/s
65%
18:00
Voelt als: 4.5°
1001.2 hPa 1.7 mm
68%
5.8°
8
Windvlaag: -3.4 m/s
70%
19:00
Voelt als: 4.5°
1001.7 hPa 2.4 mm
65%
4.9°
8
Windvlaag: -4 m/s
84%
20:00
Voelt als: 4.7°
1002.2 hPa
64%
5.5°
7
Windvlaag: -4 m/s
79%
21:00
Voelt als: 4.7°
1002.9 hPa
65%
5.4°
7
Windvlaag: -3.3 m/s
62%
22:00
Voelt als: 4.7°
1003.2 hPa 3.1 mm
65%
5.4°
7
Windvlaag: -3.5 m/s
74%
23:00
Voelt als: 5.0°
1003.9 hPa
30%
5.0°
7
Windvlaag: -2.9 m/s
71%
 07:48     17:05    Daglengte: 9:17 Morgen
00:00
Voelt als: 4.8°
1004.3 hPa 3.7 mm
30%
5.3°
7
Windvlaag: -3.6 m/s
63%
01:00
Voelt als: 5.2°
1004.5 hPa 3.7 mm
68%
5.0°
7
Windvlaag: -4 m/s
72%
02:00
Voelt als: 5.2°
1004.5 hPa 3.0 mm
68%
6.0°
6
Windvlaag: -3.2 m/s
84%
03:00
Voelt als: 5.3°
1004.9 hPa 3.2 mm
72%
6.3°
7
Windvlaag: -3.5 m/s
60%
04:00
Voelt als: 5.4°
1004.9 hPa 4.0 mm
67%
5.9°
8
Windvlaag: -3.1 m/s
80%
05:00
Voelt als: 5.6°
1005.4 hPa 3.9 mm
30%
5.5°
7
Windvlaag: -2.8 m/s
59%
06:00
Voelt als: 5.8°
1006.1 hPa
30%
5.4°
7
Windvlaag: -2.7 m/s
74%
07:00
Voelt als: 6.2°
1006.9 hPa
65%
5.9°
6
Windvlaag: -2.6 m/s
13%
08:00
10°
Voelt als: 6.7°
1007.5 hPa
29%
6.2°
7
Windvlaag: -2 m/s
10%
09:00
10°
1008.2 hPa
29%
6.3°
8
Windvlaag: -2.1 m/s
33%
10:00
10°
1008.9 hPa
30%
7.5°
8
Windvlaag: -2.2 m/s
40%
11:00
11°
1009.4 hPa 4.1 mm
70%
7.2°
9
Windvlaag: -2 m/s
51%
12:00
11°
1009.3 hPa 3.4 mm
78%
6.3°
9
Windvlaag: -2.5 m/s
53%
13:00
11°
1009.2 hPa 3.5 mm
81%
7.2°
10
Windvlaag: -2.5 m/s
74%
14:00
11°
1009.2 hPa 3.4 mm
77%
7.3°
10
Windvlaag: -2.9 m/s
43%
15:00
11°
1009.5 hPa 4.8 mm
77%
7.3°
9
Windvlaag: -3.1 m/s
34%
16:00
11°
1009.9 hPa 4.9 mm
73%
7.6°
9
Windvlaag: -3.3 m/s
61%
17:00
11°
1010.2 hPa 5.2 mm
73%
7.6°
9
Windvlaag: -2.7 m/s
33%
18:00
10°
1010.6 hPa 3.8 mm
68%
7.5°
9
Windvlaag: -2.4 m/s
56%
19:00
10°
1011.1 hPa 3.8 mm
68%
7.2°
8
Windvlaag: -2.4 m/s
63%
20:00
10°
1011.8 hPa 3.9 mm
68%
7.1°
8
Windvlaag: -3 m/s
30%
21:00
10°
1012.3 hPa 3.6 mm
68%
6.8°
9
Windvlaag: -3.3 m/s
37%
22:00
10°
1012.8 hPa 3.7 mm
68%
6.9°
8
Windvlaag: -4.1 m/s
33%
23:00
10°
1013.0 hPa 3.8 mm
68%
7.0°
9
Windvlaag: -3.7 m/s
54%
 07:49     17:05    Daglengte: 9:16 Zondag 06 Dec
00:00
11°
1013.2 hPa 3.8 mm
68%
7.4°
7
Windvlaag: -3.4 m/s
56%
01:00
10°
1013.2 hPa 4.0 mm
68%
7.6°
8
Windvlaag: -4.1 m/s
54%
02:00
10°
1013.0 hPa 3.9 mm
68%
7.6°
7
Windvlaag: -4 m/s
53%
03:00
10°
1013.0 hPa 5.4 mm
69%
7.4°
8
Windvlaag: -3.7 m/s
61%
04:00
11°
1013.0 hPa 5.4 mm
68%
7.1°
7
Windvlaag: -3.4 m/s
63%
05:00
11°
1013.1 hPa 3.9 mm
68%
7.1°
8
Windvlaag: -3.7 m/s
73%
06:00
11°
1013.3 hPa 3.9 mm
75%
7.0°
8
Windvlaag: -4.2 m/s
80%
07:00
11°
1013.5 hPa 5.3 mm
82%
7.2°
7
Windvlaag: -3.8 m/s
77%
08:00
11°
1013.9 hPa 5.4 mm
82%
7.3°
7
Windvlaag: -3.3 m/s
80%
09:00
11°
1014.3 hPa 3.8 mm
100%
8.1°
6
Windvlaag: -3 m/s
77%
10:00
11°
1014.7 hPa 3.9 mm
100%
8.0°
5
Windvlaag: -1.6 m/s
94%
11:00
11°
1014.8 hPa 3.8 mm
100%
8.1°
5
Windvlaag: -2.2 m/s
80%
12:00
11°
1014.4 hPa 5.6 mm
100%
8.0°
4
Windvlaag: -2.2 m/s
86%
13:00
12°
1013.8 hPa 5.7 mm
100%
8.0°
4
Windvlaag: -1.5 m/s
69%
14:00
12°
1013.3 hPa 5.7 mm
100%
7.9°
4
Windvlaag: -1.4 m/s
90%
15:00
12°
1012.9 hPa 6.1 mm
100%
8.0°
4
Windvlaag: -1 m/s
93%
16:00
13°
1012.7 hPa 4.6 mm
100%
8.7°
3
Windvlaag: -0.1 m/s
98%
17:00
13°
1012.4 hPa 6.3 mm
100%
9.1°
3
Windvlaag: 0.3 m/s
99%
18:00
13°
1012.8 hPa 6.8 mm
100%
9.2°
3
Windvlaag: 2 m/s
96%
19:00
12°
1013.0 hPa 4.7 mm
100%
9.2°
4
Windvlaag: 2.5 m/s
97%
20:00
12°
1013.3 hPa 4.5 mm
100%
9.5°
5
Windvlaag: 3.2 m/s
91%
21:00
12°
1013.0 hPa 4.8 mm
100%
10.0°
4
Windvlaag: 3.2 m/s
95%
22:00
13°
1012.7 hPa 4.9 mm
100%
9.8°
4
Windvlaag: 1.8 m/s
93%
23:00
13°
1012.1 hPa 5.0 mm
100%
10.2°
5
Windvlaag: 1.3 m/s
98%
 07:50     17:05    Daglengte: 9:15 Maandag 07 Dec
00:00
13°
1011.9 hPa 7.0 mm
100%
10.9°
5
Windvlaag: 1.5 m/s
97%
01:00
13°
1011.9 hPa 11.4 mm
100%
11.1°
5
Windvlaag: 2.8 m/s
96%
02:00
13°
1011.6 hPa 11.2 mm
100%
11.2°
6
Windvlaag: 3.2 m/s
97%
03:00
14°
1011.7 hPa 6.7 mm
100%
11.9°
7
Windvlaag: -1.8 m/s
91%
04:00
14°
1011.7 hPa 6.7 mm
100%
12.0°
8
Windvlaag: -3.5 m/s
93%
05:00
14°
1011.8 hPa 6.4 mm
97%
12.0°
8
Windvlaag: -3.3 m/s
89%
06:00
14°
1011.6 hPa 6.4 mm
100%
12.2°
9
Windvlaag: -2.4 m/s
96%
07:00
14°
1012.2 hPa
99%
12.0°
9
Windvlaag: 7.9 m/s
98%
08:00
13°
1012.4 hPa 10.5 mm
100%
11.8°
9
Windvlaag: 9.8 m/s
84%
09:00
13°
1012.9 hPa
94%
11.8°
10
Windvlaag: 11.2 m/s
90%
10:00
13°
1013.4 hPa 10.8 mm
92%
11.5°
10
Windvlaag: 12.3 m/s
90%
11:00
13°
1013.8 hPa 10.7 mm
94%
11.3°
11
Windvlaag: 10.8 m/s
90%
Temp/Neerslag /Baro Onweer/Dauwpunt
    Temp Baro Neerslag Dauwpunt Wind Bewolking  
 07:47     17:05    Daglengte: 9:18 Vandaag
15:00
Voelt als: 4.3°
1000.4 hPa 7.6 mm 6.5°
9
70% warningclass
18:00
Voelt als: 4.5°
1001.2 hPa 5.2 mm 5.8°
8
70%
21:00
Voelt als: 4.7°
1002.9 hPa 2.4 mm 5.4°
7
62%
 07:48     17:05    Daglengte: 9:17 Morgen
00:00
Voelt als: 4.8°
1004.3 hPa 6.8 mm 5.3°
7
63%
03:00
Voelt als: 5.3°
1004.9 hPa 9.9 mm 6.3°
7
60%
06:00
Voelt als: 5.8°
1006.1 hPa 7.9 mm 5.4°
7
74%
09:00
10°
1008.2 hPa   6.3°
8
33%
12:00
11°
1009.3 hPa 7.5 mm 6.3°
9
53%
15:00
11°
1009.5 hPa 11.6 mm 7.3°
9
34%
18:00
10°
1010.6 hPa 13.9 mm 7.5°
9
56%
21:00
10°
1012.3 hPa 11.3 mm 6.8°
9
37%
 07:49     17:05    Daglengte: 9:16 Zondag 06 Dec
00:00
11°
1013.2 hPa 11.2 mm 7.4°
7
56%
03:00
10°
1013.0 hPa 13.3 mm 7.4°
8
61%
06:00
11°
1013.3 hPa 13.2 mm 7.0°
8
80%
09:00
11°
1014.3 hPa 14.6 mm 8.1°
6
77%
12:00
11°
1014.4 hPa 13.3 mm 8.0°
4
86%
15:00
12°
1012.9 hPa 17.5 mm 8.0°
4
93%
18:00
13°
1012.8 hPa 17.6 mm 9.2°
3
96%
21:00
12°
1013.0 hPa 14.0 mm 10.0°
4
95%
 07:50     17:05    Daglengte: 9:15 Maandag 07 Dec
00:00
13°
1011.9 hPa 16.9 mm 10.9°
5
97%
03:00
14°
1011.7 hPa 29.4 mm 11.9°
7
91%
06:00
14°
1011.6 hPa 19.5 mm 12.2°
9
96%
09:00
13°
1012.9 hPa 10.5 mm 11.8°
10
90%
12:00
13°
1013.8 hPa 32.1 mm 11.0°
11
85%
15:00
12°
1012.4 hPa 33.5 mm 10.0°
11
61%
18:00
12°
1012.2 hPa 33.8 mm 9.8°
11
47%
21:00
12°
1012.8 hPa 34.2 mm 9.1°
10
49%
 07:51     17:05    Daglengte: 9:14 Dinsdag 08 Dec
00:00
12°
1013.3 hPa 34.7 mm 8.4°
10
51%
03:00
12°
1014.1 hPa 35.4 mm 8.5°
11
52%
06:00
12°
1015.0 hPa 36.3 mm 8.5°
11
53%
09:00
12°
1016.5 hPa 37.0 mm 8.3°
10
55%
12:00
12°
1017.9 hPa 37.3 mm 8.2°
9
57%
15:00
12°
1018.4 hPa 37.6 mm 7.6°
9
49%
18:00
12°
1019.1 hPa 38.0 mm 6.9°
8
41%
21:00
11°
1019.8 hPa 38.4 mm 7.6°
7
30%
 07:52     17:05    Daglengte: 9:13 Woensdag 09 Dec
00:00
11°
1020.5 hPa 38.7 mm 8.2°
5
19%
03:00
Voelt als: 7.2°
1020.7 hPa 38.9 mm 7.7°
4
27%
06:00
Voelt als: 6.3°
1021.0 hPa 38.9 mm 7.2°
2
34%
09:00
Voelt als: 6.9°
1021.7 hPa 38.9 mm 7.0°
3
63%
12:00
Voelt als: 7.6°
1022.5 hPa 39.6 mm 6.7°
3
92%
15:00
10°
Voelt als: 7.8°
1021.6 hPa 42.3 mm 7.3°
4
92%
18:00
10°
1020.8 hPa 45.2 mm 7.9°
4
92%
21:00
11°
1020.5 hPa 49.4 mm 8.7°
4
91%
 07:53     17:05    Daglengte: 9:12 Donderdag 10 Dec
00:00
11°
1020.0 hPa 53.9 mm 9.4°
4
91%
03:00
12°
1019.0 hPa 60.4 mm 10.7°
5
91%
06:00
13°
1018.0 hPa 65.9 mm 12.0°
5
92%
09:00
13°
1018.4 hPa 71.4 mm 12.4°
4
88%
12:00
13°
1018.8 hPa 81.2 mm 12.7°
3
84%
15:00
14°
1017.6 hPa 85.1 mm 12.9°
4
88%
18:00
14°
1016.7 hPa 88.8 mm 13.0°
5
92%
21:00
14°
1016.7 hPa 96.6 mm 13.6°
6
92%
 07:53     17:05    Daglengte: 9:12 Vrijdag 11 Dec
00:00
15°
1016.8 hPa 97.4 mm 14.1°
6
92%
03:00
15°
1017.0 hPa 98.5 mm 14.0°
5
92%
06:00
14°
1017.2 hPa 99.8 mm 13.9°
4
92%
09:00
14°
1018.2 hPa 101.6 mm 13.7°
4
92%
12:00
14°
1019.4 hPa 204.8 mm 13.5°
4
92%
18:00
14°
1019.5 hPa 209.2 mm 13.0°
4
91%
 07:54     17:05    Daglengte: 9:11 Zaterdag 12 Dec
00:00
14°
1019.5 hPa 214.3 mm 13.1°
5
88%
06:00
14°
1017.8 hPa 219.0 mm 13.1°
7
92%
12:00
15°
1019.2 hPa 235.2 mm 13.7°
8
92%
18:00
15°
1018.7 hPa 238.9 mm 13.7°
6
92%
 07:55     17:05    Daglengte: 9:10 Zondag 13 Dec
00:00
13°
1020.6 hPa 246.3 mm 13.0°
4
92%
06:00
14°
1019.9 hPa 246.9 mm 13.1°
6
92%
12:00
14°
1021.3 hPa 247.0 mm 13.0°
7
79%
18:00
14°
1020.1 hPa 247.0 mm 13.2°
6
92%
 07:56     17:05    Daglengte: 9:09 Maandag 14 Dec
00:00
13°
1016.3 hPa 248.7 mm 11.5°
5
1%
06:00
15°
1015.5 hPa 262.2 mm 15.0°
5
1%
12:00
13°
1020.7 hPa 1.1 mm 9.5°
1
69%
18:00
12°
1021.1 hPa 1.0 mm 9.7°
2
60%
 07:56     17:06    Daglengte: 9:10 Dinsdag 15 Dec
00:00
12°
1022.9 hPa 1.2 mm 9.1°
0
61%
06:00
11°
1022.7 hPa 0.2 mm 8.3°
1
57%
12:00
13°
1024.0 hPa 0.9 mm 8.4°
1
56%
18:00
12°
1023.5 hPa 0.7 mm 9.2°
1
54%
 07:57     17:06    Daglengte: 9:09 Woensdag 16 Dec
00:00
11°
1024.9 hPa 0.4 mm 8.4°
0
52%
06:00
11°
1024.9 hPa 0.9 mm 7.6°
1
52%
12:00
13°
1026.3 hPa 0.4 mm 7.6°
1
53%
18:00
12°
1025.9 hPa 0.3 mm 8.2°
2
57%
 07:58     17:06    Daglengte: 9:08 Donderdag 17 Dec
00:00
11°
1026.6 hPa 0.6 mm 7.5°
2
55%
06:00
10°
1025.6 hPa 0.6 mm 7.1°
1
55%
12:00
12°
1025.8 hPa 1.1 mm 7.6°
0
60%
18:00
12°
1025.1 hPa 2.1 mm 8.6°
2
55%
 07:58     17:07    Daglengte: 9:09 Vrijdag 18 Dec
00:00
11°
1026.1 hPa 0.4 mm 7.5°
2
44%
06:00
10°
Voelt als: 9.3°
1025.2 hPa 0.5 mm 7.0°
2
54%
12:00
12°
1025.1 hPa 0.7 mm 7.4°
1
59%
18:00
11°
1023.9 hPa 0.5 mm 7.7°
2
54%
 07:59     17:07    Daglengte: 9:08 Zaterdag 19 Dec
00:00
10°
Voelt als: 8.7°
1024.5 hPa 0.3 mm 6.0°
2
45%
06:00
Voelt als: 8.0°
1023.6 hPa 0.3 mm 5.3°
2
44%
12:00
12°
1023.6 hPa 0.6 mm 5.8°
1
46%
  CAPE Lifted Index Hail Supercell Tornado SRH 3km CL BTM PRES CL TOP PRES Swiss DWD icon SMHI TS
 07:47     17:05    Daglengte: 9:18 Vandaag
14:00 25 J/kg 1.1 K 0 % 0 % 0 % 0 m²/s² 0 0 3.05 80
15:00 225 J/kg -0.5 K 0 % 0 % 0 % 0 m²/s² 0 0 -0.05 95
16:00 85 J/kg 0.1 K 0 % 0 % 0 % 0 m²/s² 0 0 1.6 80
17:00 2 J/kg 1.0 K 0 % 0 % 0 % 0 m²/s² 0 0 1.69 80
18:00 0 J/kg 1.1 K 0 % 0 % 0 % 0 m²/s² 0 0 1.79 3
19:00 0 J/kg 0.6 K 0 % 0 % 0 % 0 m²/s² 0 0 1.38 3
20:00 64 J/kg 1.1 K 0 % 0 % 0 % 0 m²/s² 0 0 1.49 3
21:00 8 J/kg 0.5 K 0 % 0 % 0 % 0 m²/s² 0 0 1.64 3
22:00 6 J/kg -0.7 K 0 % 0 % 0 % 0 m²/s² 0 0 2.42 3
23:00 0 J/kg 1.4 K 0 % 0 % 0 % 0 m²/s² 0 0 2.06 3
 07:48     17:05    Daglengte: 9:17 Morgen
00:00 0 J/kg -0.5 K 0 % 0 % 0 % 0 m²/s² 0 0 0.73 3
01:00 195 J/kg -1.5 K 0 % 0 % 0 % 0 m²/s² 0 0 0.93 3
02:00 365 J/kg -1.3 K 0 % 0 % 0 % 0 m²/s² 0 0 1.97 80
03:00 353 J/kg -0.9 K 0 % 0 % 0 % 0 m²/s² 0 0 2.64 80
04:00 397 J/kg -1.6 K 0 % 0 % 0 % 0 m²/s² 0 0 2.33 3
05:00 300 J/kg -1.2 K 0 % 0 % 0 % 0 m²/s² 0 0 3.18 3
06:00 156 J/kg -0.2 K 0 % 0 % 0 % 0 m²/s² 0 0 2.5 3
07:00 217 J/kg 0.5 K 0 % 0 % 0 % 0 m²/s² 0 0 3.05 1
08:00 185 J/kg 2.1 K 0 % 0 % 0 % 0 m²/s² 0 0 6.18 1
09:00 206 J/kg 2.4 K 0 % 0 % 0 % 0 m²/s² 0 0 6.81 2
10:00 237 J/kg 2.4 K 0 % 0 % 0 % 0 m²/s² 0 0 5.73 2
11:00 263 J/kg 3.1 K 0 % 0 % 0 % 0 m²/s² 0 0 6.7 2
12:00 15 J/kg 6.2 K 0 % 0 % 0 % 0 m²/s² 0 0 6.71 80
13:00 309 J/kg 4.4 K 0 % 0 % 0 % 0 m²/s² 0 0 5.03 80
14:00 271 J/kg 5.7 K 0 % 0 % 0 % 0 m²/s² 0 0 7.47 80
15:00 176 J/kg 7.3 K 0 % 0 % 0 % 0 m²/s² 0 0 8.92 80
16:00 207 J/kg 7.5 K 0 % 0 % 0 % 0 m²/s² 0 0 8.91 80
17:00 173 J/kg 8.0 K 0 % 0 % 0 % 0 m²/s² 0 0 11.72 80
18:00 188 J/kg 8.5 K 0 % 0 % 0 % 0 m²/s² 0 0 10 80
19:00 164 J/kg 8.7 K 0 % 0 % 0 % 0 m²/s² 0 0 11.13 80
20:00 95 J/kg 10.6 K 0 % 0 % 0 % 0 m²/s² 0 0 16.3 80
21:00 84 J/kg 10.3 K 0 % 0 % 0 % 0 m²/s² 0 0 14.68 80
22:00 84 J/kg 10.6 K 0 % 0 % 0 % 0 m²/s² 0 0 13.21 80
23:00 154 J/kg 10.2 K 0 % 0 % 0 % 0 m²/s² 0 0 13.11 80
 07:49     17:05    Daglengte: 9:16 Zondag 06 Dec
00:00 125 J/kg 10.5 K 0 % 0 % 0 % 0 m²/s² 0 0 15.96 80
01:00 103 J/kg 10.3 K 0 % 0 % 0 % 0 m²/s² 0 0 15.1 80
02:00 85 J/kg 10.2 K 0 % 0 % 0 % 0 m²/s² 0 0 14.46 2
03:00 88 J/kg 9.7 K 0 % 0 % 0 % 0 m²/s² 0 0 14.92 80
04:00 83 J/kg 9.3 K 0 % 0 % 0 % 0 m²/s² 0 0 16.17 80
05:00 95 J/kg 8.7 K 0 % 0 % 0 % 0 m²/s² 0 0 15.15 80
06:00 110 J/kg 8.3 K 0 % 0 % 0 % 0 m²/s² 0 0 14.18 80
07:00 120 J/kg 7.6 K 0 % 0 % 0 % 0 m²/s² 0 0 11.08 80
08:00 106 J/kg 7.2 K 0 % 0 % 0 % 0 m²/s² 0 0 9.78 80
09:00 95 J/kg 6.8 K 0 % 0 % 0 % 0 m²/s² 0 0 7.82 61
10:00 75 J/kg 6.2 K 0 % 0 % 0 % 0 m²/s² 0 0 6.8 61
11:00 116 J/kg 4.8 K 0 % 0 % 0 % 0 m²/s² 0 0 5.28 61
12:00 78 J/kg 4.6 K 0 % 0 % 0 % 0 m²/s² 0 0 5.17 61
13:00 119 J/kg 3.7 K 0 % 0 % 0 % 0 m²/s² 0 0 4.18 61
14:00 127 J/kg 3.4 K 0 % 0 % 0 % 0 m²/s² 0 0 3.64 61
15:00 121 J/kg 2.6 K 0 % 0 % 0 % 0 m²/s² 0 0 2.84 61
16:00 253 J/kg 1.0 K 0 % 0 % 0 % 0 m²/s² 0 0 1.33 80
17:00 304 J/kg 0.3 K 0 % 0 % 0 % 0 m²/s² 0 0 0.57 80
18:00 294 J/kg 0.1 K 0 % 0 % 0 % 0 m²/s² 0 0 0.37 80
19:00 282 J/kg 0.2 K 0 % 0 % 0 % 0 m²/s² 0 0 0.56 80
20:00 273 J/kg 0.3 K 0 % 0 % 0 % 0 m²/s² 0 0 0.66 80
21:00 266 J/kg 0.8 K 0 % 0 % 0 % 0 m²/s² 0 0 1.22 80
22:00 277 J/kg 1.3 K 0 % 0 % 0 % 0 m²/s² 0 0 2.2 80
23:00 260 J/kg 1.8 K 0 % 0 % 0 % 0 m²/s² 0 0 3.12 80
 07:50     17:05    Daglengte: 9:15 Maandag 07 Dec
00:00 251 J/kg 2.0 K 0 % 0 % 0 % 0 m²/s² 0 0 4.22 80
01:00 220 J/kg 2.2 K 0 % 0 % 0 % 0 m²/s² 0 0 5.08 80
02:00 176 J/kg 2.4 K 0 % 0 % 0 % 0 m²/s² 0 0 5.82 80
03:00 151 J/kg 2.5 K 0 % 0 % 0 % 0 m²/s² 0 0 5.65 80
04:00 141 J/kg 2.5 K 0 % 0 % 0 % 0 m²/s² 0 0 5.59 80
05:00 138 J/kg 2.8 K 0 % 0 % 0 % 0 m²/s² 0 0 4.99 80
06:00 138 J/kg 2.9 K 0 % 0 % 0 % 0 m²/s² 0 0 4.7 80
07:00 126 J/kg 2.5 K 0 % 0 % 0 % 0 m²/s² 0 0 4.24 3
08:00 184 J/kg 1.8 K 0 % 0 % 0 % 0 m²/s² 0 0 3.03 3
09:00 179 J/kg 1.9 K 0 % 0 % 0 % 0 m²/s² 0 0 2.8 3
10:00 57 J/kg 3.5 K 0 % 0 % 0 % 0 m²/s² 0 0 4.55 80
11:00 52 J/kg 3.5 K 0 % 0 % 0 % 0 m²/s² 0 0 5.24 80
Temp Baro Wind Neerslag
  EWN Forecast EWN WRFDA DWD ICON FMI HIRLAM MET Norway GFS
 07:47     17:05    Daglengte: 9:18 Vandaag
15:00 8.5° 1000.4 hPa 9.3 m/s 7.6 mm 8.2° 998.2 hPa 14.0 m/s 16.0 mm 8.1° 1000.8 hPa 8.7 m/s 12.7 mm 9.4° 1000.1 hPa 9.8 m/s 0.0 mm 7.6° 1001.4 hPa 8.0 m/s 8.9° 999.7 hPa 9.1 m/s
18:00 8.3° 1001.2 hPa 8.2 m/s 5.2 mm 7.3° 999.2 hPa 8.3 m/s 28.6 mm 8.1° 1001.0 hPa 7.9 m/s 0.7 mm 9.3° 1000.4 hPa 8.3 m/s 0.0 mm 7.8° 1002.2 hPa 8.1 m/s 8.1° 1000.5 hPa 5.8 m/s
21:00 8.3° 1002.9 hPa 7.0 m/s 2.4 mm 6.9° 1002.1 hPa 6.3 m/s 35.1 mm 8.1° 1003.0 hPa 6.0 m/s 0.1 mm 9.2° 1002.0 hPa 7.2 m/s 0.0 mm 7.9° 1003.3 hPa 7.1 m/s 8.3° 1003.9 hPa 6.6 m/s
 07:48     17:05    Daglengte: 9:17 Morgen
00:00 8.4° 1004.3 hPa 7.1 m/s 6.8 mm 6.8° 1003.5 hPa 2.2 m/s 50.4 mm 8.2° 1004.2 hPa 6.8 m/s 0.0 mm 9.0° 1004.4 hPa 6.4 m/s 0.0 mm 7.9° 1004.8 hPa 7.9 m/s 7.7° 1005.0 hPa 6.1 m/s
03:00 8.8° 1004.9 hPa 7.2 m/s 9.9 mm 10.3° 1003.5 hPa 9.2 m/s 55.7 mm 8.4° 1004.6 hPa 5.7 m/s 1.0 mm 8.6° 1005.3 hPa 3.8 m/s 0.0 mm 8.2° 1005.4 hPa 7.5 m/s 7.8° 1005.9 hPa 6.0 m/s
06:00 9.0° 1006.1 hPa 6.6 m/s 7.9 mm 9.2° 1004.5 hPa 6.4 m/s 56.9 mm 8.6° 1005.9 hPa 5.0 m/s 0.0 mm 8.3° 1007.1 hPa 3.1 m/s 0.0 mm 9.0° 1006.5 hPa 7.9 m/s 8.2° 1007.3 hPa 6.0 m/s
09:00 10.3° 1008.2 hPa 7.6 m/s 0.0 mm 11.5° 1006.9 hPa 9.6 m/s 58.0 mm 9.3° 1008.1 hPa 5.0 m/s 0.0 mm 10.6° 1009.0 hPa 8.1 m/s 0.0 mm 9.8° 1008.6 hPa 7.9 m/s 8.8° 1009.1 hPa 5.8 m/s
12:00 10.6° 1009.3 hPa 8.6 m/s 7.5 mm 9.8° 1008.6 hPa 7.1 m/s 60.0 mm 10.2° 1009.5 hPa 9.5 m/s 0.5 mm 11.5° 1009.4 hPa 8.8 m/s 0.0 mm 10.3° 1010.0 hPa 8.4 m/s 10.9° 1009.8 hPa 8.3 m/s
15:00 10.8° 1009.5 hPa 9.5 m/s 11.6 mm 11.7° 1008.3 hPa 11.9 m/s 65.9 mm 10.3° 1009.9 hPa 10.1 m/s 1.6 mm 11.0° 1009.4 hPa 8.7 m/s 0.0 mm 10.1° 1010.2 hPa 9.0 m/s 10.4° 1010.1 hPa 8.6 m/s
18:00 10.4° 1010.6 hPa 9.1 m/s 13.9 mm 10.8° 1009.6 hPa 11.0 m/s 67.9 mm 9.8° 1011.9 hPa 9.1 m/s 1.9 mm 10.9° 1010.0 hPa 8.7 m/s 0.0 mm 9.7° 1011.2 hPa 9.9 m/s 9.1° 1011.7 hPa 7.9 m/s
21:00 10.2° 1012.3 hPa 8.7 m/s 11.3 mm 11.0° 1010.7 hPa 9.4 m/s 70.5 mm 9.5° 1013.6 hPa 6.9 m/s 1.7 mm 10.4° 1011.9 hPa 7.3 m/s 0.0 mm 9.5° 1012.9 hPa 9.1 m/s 9.0° 1013.6 hPa 5.8 m/s
 07:49     17:05    Daglengte: 9:16 Zondag 06 Dec
00:00 10.5° 1013.2 hPa 7.3 m/s 11.2 mm 10.5° 1011.9 hPa 8.2 m/s 72.0 mm 9.6° 1014.2 hPa 5.8 m/s 1.0 mm 10.1° 1013.0 hPa 5.6 m/s 0.0 mm 10.4° 1013.7 hPa 7.4 m/s 9.0° 1014.1 hPa 4.8 m/s
03:00 10.4° 1013.0 hPa 7.7 m/s 13.3 mm 11.0° 1012.0 hPa 8.4 m/s 74.7 mm 9.8° 1014.1 hPa 5.0 m/s 0.8 mm 10.0° 1012.8 hPa 3.2 m/s 0.0 mm 10.0° 1013.3 hPa 8.3 m/s 8.8° 1014.2 hPa 4.6 m/s
06:00 10.9° 1013.3 hPa 8.0 m/s 13.2 mm 11.0° 1011.6 hPa 8.4 m/s 74.8 mm 10.3° 1013.6 hPa 5.2 m/s 1.1 mm 11.0° 1013.5 hPa 4.8 m/s 0.0 mm 10.5° 1013.9 hPa 8.4 m/s 9.7° 1014.1 hPa 5.4 m/s
09:00 10.7° 1014.3 hPa 5.9 m/s 14.6 mm 11.5° 1013.0 hPa 8.0 m/s 75.0 mm 10.0° 1014.5 hPa 2.1 m/s 1.8 mm 10.5° 1015.2 hPa 6.4 m/s 9.9° 1015.3 hPa 4.3 m/s
12:00 11.1° 1014.4 hPa 3.9 m/s 13.3 mm 12.1° 1013.1 hPa 6.7 m/s 76.2 mm 10.0° 1014.5 hPa 1.4 m/s 1.8 mm 10.8° 1015.6 hPa 3.9 m/s 11.0° 1015.5 hPa 4.9 m/s
15:00 12.2° 1012.9 hPa 3.8 m/s 17.5 mm 12.0° 1012.0 hPa 5.2 m/s 79.0 mm 12.2° 1012.5 hPa 3.5 m/s 3.7 mm 12.1° 1014.9 hPa 3.8 m/s 12.4° 1014.1 hPa 4.2 m/s
18:00 12.5° 1012.8 hPa 2.9 m/s 17.6 mm 13.8° 1011.5 hPa 8.7 m/s 88.0 mm 13.4° 1012.4 hPa 6.8 m/s 3.4 mm 11.9° 1015.4 hPa 1.6 m/s 11.3° 1014.1 hPa 3.4 m/s
21:00 12.4° 1013.0 hPa 3.9 m/s 14.0 mm 13.9° 1011.6 hPa 6.6 m/s 90.3 mm 14.0° 1012.6 hPa 4.3 m/s 2.5 mm 12.1° 1015.7 hPa 3.0 m/s 12.2° 1013.9 hPa 4.0 m/s
 07:50     17:05    Daglengte: 9:15 Maandag 07 Dec
00:00 13.0° 1011.9 hPa 4.9 m/s 16.9 mm 14.1° 1011.7 hPa 6.0 m/s 91.6 mm 14.5° 1011.5 hPa 8.3 m/s 4.1 mm 12.9° 1014.1 hPa 4.3 m/s 12.3° 1013.2 hPa 3.7 m/s
03:00 13.6° 1011.7 hPa 6.7 m/s 29.4 mm 13.6° 1011.6 hPa 4.9 m/s 92.4 mm 14.2° 1011.3 hPa 7.1 m/s 4.2 mm 13.1° 1012.9 hPa 7.1 m/s 13.7° 1012.0 hPa 7.1 m/s
06:00 13.6° 1011.6 hPa 9.3 m/s 19.5 mm 13.3° 1012.2 hPa 4.4 m/s 92.6 mm 14.3° 1011.6 hPa 7.6 m/s 1.4 mm 13.3° 1011.7 hPa 9.9 m/s 13.7° 1012.4 hPa 7.6 m/s
09:00 13.5° 1012.9 hPa 9.8 m/s 10.5 mm 14.1° 1013.5 hPa 8.8 m/s 93.9 mm 14.4° 1013.8 hPa 8.6 m/s 0.3 mm 12.8° 1012.2 hPa 10.8 m/s 13.3° 1014.4 hPa 8.6 m/s
12:00 13.3° 1013.8 hPa 10.9 m/s 32.1 mm 14.4° 1015.0 hPa 7.9 m/s 94.9 mm 14.2° 1014.8 hPa 10.8 m/s 0.7 mm 12.3° 1012.8 hPa 11.7 m/s 13.5° 1015.5 hPa 7.4 m/s
15:00 12.2° 1012.4 hPa 10.9 m/s 33.5 mm 12.1° 1012.2 hPa 11.2 m/s 13.4° 1015.1 hPa 7.6 m/s 33.5 mm
18:00 12.1° 1012.2 hPa 10.6 m/s 33.8 mm 12.0° 1011.9 hPa 10.9 m/s 12.9° 1015.9 hPa 7.3 m/s 33.8 mm
21:00 12.1° 1012.8 hPa 10.4 m/s 34.2 mm 12.1° 1012.5 hPa 10.7 m/s 13.0° 1016.0 hPa 7.6 m/s 34.2 mm
 07:51     17:05    Daglengte: 9:14 Dinsdag 08 Dec
00:00 12.2° 1013.3 hPa 10.3 m/s 34.7 mm 12.1° 1013.1 hPa 10.4 m/s 13.5° 1015.3 hPa 8.9 m/s 34.7 mm
03:00 12.1° 1014.1 hPa 10.7 m/s 35.4 mm 11.9° 1014.0 hPa 10.9 m/s 13.6° 1014.8 hPa 9.5 m/s 35.4 mm
06:00 11.9° 1015.0 hPa 11.2 m/s 36.3 mm 11.8° 1015.0 hPa 11.3 m/s 13.1° 1015.0 hPa 10.5 m/s 36.3 mm
09:00 12.0° 1016.5 hPa 10.3 m/s 37.0 mm 12.0° 1016.5 hPa 10.4 m/s 12.4° 1016.0 hPa 9.5 m/s 37.0 mm
12:00 12.2° 1017.9 hPa 9.5 m/s 37.3 mm 12.2° 1018.0 hPa 9.4 m/s 12.8° 1016.8 hPa 10.3 m/s 37.3 mm
15:00 12.0° 1018.4 hPa 8.9 m/s 37.6 mm 12.0° 1018.6 hPa 8.9 m/s 12.5° 1016.3 hPa 8.1 m/s 37.6 mm
18:00 11.8° 1019.1 hPa 8.4 m/s 38.0 mm 11.8° 1019.2 hPa 8.5 m/s 11.5° 1017.6 hPa 6.9 m/s 38.0 mm
21:00 11.2° 1019.8 hPa 6.6 m/s 38.4 mm 11.2° 1019.9 hPa 6.8 m/s 10.8° 1018.1 hPa 5.4 m/s 38.4 mm
 07:52     17:05    Daglengte: 9:13 Woensdag 09 Dec
00:00 10.7° 1020.5 hPa 4.9 m/s 38.7 mm 10.7° 1020.6 hPa 5.0 m/s 10.2° 1018.9 hPa 4.3 m/s 38.7 mm
03:00 9.2° 1020.7 hPa 3.7 m/s 38.9 mm 9.2° 1020.9 hPa 3.8 m/s 9.8° 1018.8 hPa 3.1 m/s 38.9 mm
06:00 7.8° 1021.0 hPa 2.5 m/s 38.9 mm 7.7° 1021.2 hPa 2.6 m/s 9.5° 1018.3 hPa 1.3 m/s 38.9 mm
09:00 8.5° 1021.7 hPa 2.8 m/s 38.9 mm 8.4° 1022.0 hPa 2.9 m/s 9.6° 1018.4 hPa 1.8 m/s 38.9 mm
12:00 9.3° 1022.5 hPa 3.1 m/s 39.6 mm 9.2° 1022.9 hPa 3.1 m/s 10.2° 1017.9 hPa 2.8 m/s 39.6 mm
15:00 9.7° 1021.6 hPa 3.8 m/s 42.3 mm 9.7° 1022.1 hPa 3.7 m/s 10.2° 1015.5 hPa 4.9 m/s 42.3 mm
18:00 10.2° 1020.8 hPa 4.3 m/s 45.2 mm 10.2° 1021.4 hPa 4.2 m/s 10.6° 1014.1 hPa 5.1 m/s 45.2 mm
21:00 10.9° 1020.5 hPa 4.1 m/s 49.4 mm 10.6° 1021.1 hPa 4.2 m/s 13.6° 1013.0 hPa 3.3 m/s 49.4 mm
 07:53     17:05    Daglengte: 9:12 Donderdag 10 Dec
00:00 11.4° 1020.0 hPa 4.4 m/s 53.9 mm 11.1° 1020.9 hPa 4.2 m/s 14.9° 1010.6 hPa 6.4 m/s 53.9 mm
03:00 12.2° 1019.0 hPa 4.8 m/s 60.4 mm 11.9° 1020.0 hPa 4.5 m/s 15.2° 1007.8 hPa 8.6 m/s 60.4 mm
06:00 12.9° 1018.0 hPa 5.3 m/s 65.9 mm 12.7° 1019.1 hPa 4.8 m/s 15.0° 1005.6 hPa 10.7 m/s 65.9 mm
09:00 13.2° 1018.4 hPa 4.5 m/s 71.4 mm 13.1° 1019.5 hPa 4.0 m/s 14.8° 1005.4 hPa 9.3 m/s 71.4 mm
12:00 13.5° 1018.8 hPa 3.5 m/s 81.2 mm 13.4° 1020.0 hPa 3.3 m/s 14.2° 1005.1 hPa 5.4 m/s 81.2 mm
15:00 13.7° 1017.6 hPa 4.3 m/s 85.1 mm 13.6° 1019.0 hPa 4.1 m/s 15.2° 1002.7 hPa 6.7 m/s 85.1 mm
18:00 13.8° 1016.7 hPa 4.8 m/s 88.8 mm 13.7° 1018.0 hPa 4.9 m/s 15.0° 1002.0 hPa 3.5 m/s 88.8 mm
21:00 14.3° 1016.7 hPa 5.7 m/s 96.6 mm 14.1° 1018.0 hPa 5.6 m/s 15.8° 1001.9 hPa 7.6 m/s 96.6 mm
 07:53     17:05    Daglengte: 9:12 Vrijdag 11 Dec
00:00 14.7° 1016.8 hPa 6.4 m/s 97.4 mm 14.6° 1018.1 hPa 6.2 m/s 16.1° 1002.8 hPa 8.9 m/s 97.4 mm
03:00 14.5° 1017.0 hPa 5.3 m/s 98.5 mm 14.4° 1018.2 hPa 4.9 m/s 16.0° 1003.9 hPa 9.3 m/s 98.5 mm
06:00 14.4° 1017.2 hPa 4.0 m/s 99.8 mm 14.2° 1018.3 hPa 3.6 m/s 16.1° 1004.7 hPa 8.8 m/s 99.8 mm
09:00 14.3° 1018.2 hPa 4.0 m/s 101.6 mm 14.1° 1019.3 hPa 3.6 m/s 16.2° 1006.4 hPa 8.7 m/s 101.6 mm
12:00 14.3° 1019.4 hPa 4.0 m/s 103.2 mm 14.1° 1020.3 hPa 3.6 m/s 16.2° 1009.0 hPa 8.1 m/s 103.2 mm
18:00 14.2° 1019.5 hPa 4.4 m/s 105.4 mm 14.1° 1020.4 hPa 4.3 m/s 15.4° 1010.0 hPa 5.6 m/s 105.4 mm
 07:54     17:05    Daglengte: 9:11 Zaterdag 12 Dec
00:00 14.0° 1019.5 hPa 5.2 m/s 108.0 mm 13.8° 1020.3 hPa 5.1 m/s 16.1° 1010.2 hPa 6.6 m/s 108.0 mm
06:00 14.1° 1017.8 hPa 7.5 m/s 110.5 mm 13.9° 1018.6 hPa 7.8 m/s 15.7° 1008.8 hPa 4.2 m/s 110.5 mm
12:00 14.6° 1019.2 hPa 7.8 m/s 117.9 mm 14.4° 1020.1 hPa 7.6 m/s 16.4° 1009.0 hPa 9.7 m/s 117.9 mm
18:00 14.5° 1018.7 hPa 6.4 m/s 120.6 mm 14.4° 1019.7 hPa 6.0 m/s 15.8° 1007.6 hPa 11.1 m/s 120.6 mm
 07:55     17:05    Daglengte: 9:10 Zondag 13 Dec
00:00 13.3° 1020.6 hPa 4.1 m/s 123.3 mm 13.2° 1021.4 hPa 4.1 m/s 14.1° 1011.9 hPa 4.0 m/s 123.3 mm
06:00 13.9° 1019.9 hPa 6.4 m/s 123.4 mm 14.0° 1020.3 hPa 6.7 m/s 12.7° 1015.5 hPa 3.1 m/s 123.4 mm
12:00 14.4° 1021.3 hPa 6.6 m/s 123.5 mm 14.4° 1021.6 hPa 7.1 m/s 14.5° 1017.8 hPa 0.8 m/s 123.5 mm
18:00 14.0° 1020.1 hPa 6.2 m/s 123.5 mm 14.1° 1020.4 hPa 6.5 m/s 12.6° 1016.5 hPa 3.5 m/s 123.5 mm
 07:56     17:05    Daglengte: 9:09 Maandag 14 Dec
00:00 12.8° 1016.3 hPa 5.2 m/s 125.0 mm 12.8° 1016.3 hPa 5.2 m/s 125.0 mm
06:00 15.4° 1015.5 hPa 5.4 m/s 133.2 mm 15.4° 1015.5 hPa 5.4 m/s 133.2 mm
12:00 13.2° 1020.7 hPa 1.2 m/s 1.1 mm
18:00 12.5° 1021.1 hPa 1.5 m/s 1.0 mm
 07:56     17:06    Daglengte: 9:10 Dinsdag 15 Dec
00:00 11.5° 1022.9 hPa 0.4 m/s 1.2 mm
06:00 10.9° 1022.7 hPa 0.6 m/s 0.2 mm
12:00 12.7° 1024.0 hPa 1.1 m/s 0.9 mm
18:00 12.0° 1023.5 hPa 1.1 m/s 0.7 mm
 07:57     17:06    Daglengte: 9:09 Woensdag 16 Dec
00:00 11.1° 1024.9 hPa 0.4 m/s 0.4 mm
06:00 10.7° 1024.9 hPa 0.9 m/s 0.9 mm
12:00 12.7° 1026.3 hPa 1.1 m/s 0.4 mm
18:00 11.7° 1025.9 hPa 1.7 m/s 0.3 mm
 07:58     17:06    Daglengte: 9:08 Donderdag 17 Dec
00:00 10.6° 1026.6 hPa 1.7 m/s 0.6 mm
06:00 10.2° 1025.6 hPa 1.3 m/s 0.6 mm
12:00 12.5° 1025.8 hPa 0.3 m/s 1.1 mm
18:00 12.0° 1025.1 hPa 2.3 m/s 2.1 mm
 07:58     17:07    Daglengte: 9:09 Vrijdag 18 Dec
00:00 10.6° 1026.1 hPa 1.9 m/s 0.4 mm
06:00 10.0° 1025.2 hPa 1.8 m/s 0.5 mm
12:00 12.0° 1025.1 hPa 0.9 m/s 0.7 mm
18:00 11.4° 1023.9 hPa 2.4 m/s 0.5 mm
 07:59     17:07    Daglengte: 9:08 Zaterdag 19 Dec
00:00 9.9° 1024.5 hPa 2.5 m/s 0.3 mm
06:00 9.1° 1023.6 hPa 2.1 m/s 0.3 mm
12:00 11.7° 1023.6 hPa 1.3 m/s 0.6 mm
FMI Hirlam - 7.5 km EWN WRFDA - 12 km DWD ICON - 7 km GFS - 25 km Basiskaart






























































Updatetijd (Europe/Amsterdam) Resolutie Lengte Stap
FMI Hirlam 13:00, 19:00, 01:00, 07:00 7.5 km 49h 1h
EWN WRFDA 09:30, 15:30, 21:30, 03:30 12 km 73h 1h
DWD ICON 10:45, 16:45, 22:45, 04:45 7 km 75h 1h
GFS 13:00, 19:00, 01:00, 07:00 25 km 237h 3h
30+ mm
25-30 mm
20-25 mm
15-20 mm
10-15 mm
6-10 mm
4-6 mm
2-4 mm
1-2 mm
0.5-1 mm
0.2-0.5 mm
0.1-0.2 mm
30+ mm
25-30 mm
20-25 mm
15-20 mm
10-15 mm
6-10 mm
4-6 mm
2-4 mm
1-2 mm
0.5-1 mm
0.2-0.5 mm
0.1-0.2 mm
Sneeuwval
Natte sneeuw
Hagel
Vorst
30+ mm
25-30 mm
20-25 mm
15-20 mm
10-15 mm
6-10 mm
4-6 mm
2-4 mm
1-2 mm
0.5-1 mm
0.2-0.5 mm
0.1-0.2 mm
Sneeuwval
Natte sneeuw
Hagel
Vorst
Onweer
50 mm
40 mm
30 mm
26 mm
22 mm
18 mm
14 mm
10 mm
9 mm
8 mm
7 mm
6 mm
5 mm
4.5 mm
4 mm
3.5 mm
3 mm
2.5 mm
2 mm
1.5 mm
1 mm
0.8 mm
0.6 mm
0.4 mm
0.2 mm
0.05 mm
35°
30°
25°
20°
15°
10°
-5°
-10°
-15°
-20°
-25°
-30°
-35°
33> m/s
29 m/s
25 m/s
21 m/s
17 m/s
14 m/s
11 m/s
8 m/s
5 m/s
3 m/s
0 m/s
2600 J/kg
2400 J/kg
2200 J/kg
2000 J/kg
1800 J/kg
1600 J/kg
1400 J/kg
1200 J/kg
1000 J/kg
800 J/kg
600 J/kg
400 J/kg
200 J/kg
70 dBZ
65 dBZ